MAC725 GMAD-GMTT

Flight info

Callsign MAC725
Flight time 1h 7m
Altitude 38000
Route MOGBA UH300 ESS UN871 OSDAM UM985 ROMSO G5 VAGNO
Aircraft A20N/M-SDE2E3FGHIRWXY/LB1

Departure

Time 2026-05-09 02:08
Airport Al Massira Airport (GMAD)

Arrival

Time 2026-05-09 03:15
Airport Tangier Ibn Battuta Airport (GMTT)
Time Latitude Longitude Altitude Speed Heading
2026-05-09 02:00 30.32902 -9.40948 237 ft 0 kts 319°
2026-05-09 02:00 30.32897 -9.40943 238 ft 2 kts 321°
2026-05-09 02:00 30.32883 -9.40932 238 ft 2 kts 327°
2026-05-09 02:01 30.32869 -9.40922 238 ft 2 kts 333°
2026-05-09 02:01 30.32854 -9.40914 238 ft 2 kts 344°
2026-05-09 02:01 30.32838 -9.40910 238 ft 2 kts
2026-05-09 02:01 30.32822 -9.40914 238 ft 2 kts 28°
2026-05-09 02:02 30.32809 -9.40926 238 ft 2 kts 64°
2026-05-09 02:02 30.32806 -9.40934 238 ft 0 kts 86°
2026-05-09 02:03 30.32806 -9.40933 238 ft 1 kts 86°
2026-05-09 02:03 30.32805 -9.40897 238 ft 9 kts 89°
2026-05-09 02:03 30.32804 -9.40803 240 ft 13 kts 91°
2026-05-09 02:04 30.32785 -9.40692 242 ft 15 kts 130°
2026-05-09 02:04 30.32684 -9.40671 242 ft 17 kts 180°
2026-05-09 02:04 30.32560 -9.40675 242 ft 19 kts 182°
2026-05-09 02:04 30.32447 -9.40635 242 ft 17 kts 117°
2026-05-09 02:05 30.32437 -9.40501 245 ft 17 kts 94°
2026-05-09 02:05 30.32435 -9.40359 247 ft 18 kts 91°
2026-05-09 02:05 30.32429 -9.40208 250 ft 19 kts 91°
2026-05-09 02:05 30.32425 -9.40050 252 ft 20 kts 92°
2026-05-09 02:06 30.32421 -9.39885 255 ft 21 kts 91°
2026-05-09 02:06 30.32416 -9.39716 258 ft 21 kts 91°
2026-05-09 02:06 30.32411 -9.39544 261 ft 20 kts 102°
2026-05-09 02:07 30.32230 -9.39547 263 ft 13 kts 238°
2026-05-09 02:07 30.32225 -9.39580 263 ft 8 kts 269°
2026-05-09 02:07 30.32236 -9.40054 252 ft 106 kts 271°
2026-05-09 02:07 30.32266 -9.41214 336 ft 170 kts 272°
2026-05-09 02:08 30.32304 -9.42675 942 ft 194 kts 272°
2026-05-09 02:08 30.32353 -9.44304 1540 ft 213 kts 271°
2026-05-09 02:08 30.32397 -9.46026 2497 ft 218 kts 270°
2026-05-09 02:08 30.32429 -9.47852 3261 ft 237 kts 270°
2026-05-09 02:09 30.32353 -9.49834 4019 ft 253 kts 254°
2026-05-09 02:09 30.31846 -9.51052 4703 ft 256 kts 237°
2026-05-09 02:09 30.30304 -9.53167 6224 ft 258 kts 229°
2026-05-09 02:09 30.29060 -9.54699 7275 ft 260 kts 232°
2026-05-09 02:10 30.28029 -9.56393 8322 ft 260 kts 243°
2026-05-09 02:10 30.27238 -9.58292 9385 ft 262 kts 250°
2026-05-09 02:10 30.26625 -9.60265 10373 ft 265 kts 253°
2026-05-09 02:10 30.26063 -9.62386 10914 ft 285 kts 255°
2026-05-09 02:11 30.25495 -9.64679 11356 ft 305 kts 255°
2026-05-09 02:11 30.24912 -9.67046 12219 ft 308 kts 255°
2026-05-09 02:11 30.24375 -9.69452 13283 ft 307 kts 263°
2026-05-09 02:11 30.24516 -9.71910 14199 ft 311 kts 283°
2026-05-09 02:12 30.25488 -9.74153 14987 ft 323 kts 303°
2026-05-09 02:12 30.27213 -9.75918 15773 ft 340 kts 322°
2026-05-09 02:12 30.29489 -9.76925 16570 ft 359 kts 340°
2026-05-09 02:12 30.31955 -9.77399 17322 ft 368 kts 345°
2026-05-09 02:13 30.34560 -9.77631 18116 ft 376 kts 349°
2026-05-09 02:13 30.37187 -9.77621 18798 ft 386 kts 354°
2026-05-09 02:13 30.39910 -9.77306 19417 ft 393 kts 357°
2026-05-09 02:13 30.42615 -9.77029 20026 ft 396 kts 355°
2026-05-09 02:14 30.45396 -9.76796 20655 ft 400 kts 354°
2026-05-09 02:14 30.48202 -9.76573 21273 ft 405 kts 354°
2026-05-09 02:14 30.51027 -9.76346 21891 ft 409 kts 354°
2026-05-09 02:14 30.53856 -9.76113 22493 ft 414 kts 354°
2026-05-09 02:15 30.56764 -9.75869 23097 ft 418 kts 354°
2026-05-09 02:15 30.59648 -9.75623 23649 ft 424 kts 354°
2026-05-09 02:15 30.62619 -9.75365 24165 ft 427 kts 354°
2026-05-09 02:15 30.65570 -9.75108 24689 ft 431 kts 353°
2026-05-09 02:16 30.68582 -9.74846 25171 ft 435 kts 353°
2026-05-09 02:16 30.71628 -9.74580 25661 ft 438 kts 353°
2026-05-09 02:16 30.74655 -9.74318 26110 ft 442 kts 353°
2026-05-09 02:16 30.77746 -9.74049 26593 ft 445 kts 353°
2026-05-09 02:17 30.80815 -9.73783 27033 ft 448 kts 353°
2026-05-09 02:17 30.83957 -9.73510 27511 ft 451 kts 353°
2026-05-09 02:17 30.87084 -9.73239 27941 ft 455 kts 353°
2026-05-09 02:17 30.90276 -9.72961 28364 ft 458 kts 353°
2026-05-09 02:18 30.93442 -9.72686 28786 ft 461 kts 353°
2026-05-09 02:18 30.96628 -9.72409 29184 ft 464 kts 353°
2026-05-09 02:18 30.99860 -9.72127 29572 ft 467 kts 353°
2026-05-09 02:18 31.03125 -9.71844 29967 ft 470 kts 353°
2026-05-09 02:19 31.06404 -9.71563 30323 ft 472 kts 353°
2026-05-09 02:19 31.09661 -9.71286 30675 ft 474 kts 353°
2026-05-09 02:19 31.12967 -9.71004 31025 ft 476 kts 353°
2026-05-09 02:19 31.16275 -9.70722 31442 ft 477 kts 353°
2026-05-09 02:20 31.19589 -9.70437 31932 ft 475 kts 353°
2026-05-09 02:20 31.22892 -9.70153 32407 ft 474 kts 353°
2026-05-09 02:20 31.26144 -9.69875 32882 ft 473 kts 353°
2026-05-09 02:20 31.29440 -9.69593 33345 ft 471 kts 353°
2026-05-09 02:21 31.32677 -9.69316 33784 ft 470 kts 353°
2026-05-09 02:21 31.35952 -9.68988 34173 ft 475 kts 357°
2026-05-09 02:21 31.39208 -9.68193 34488 ft 489 kts
2026-05-09 02:21 31.42461 -9.66790 34778 ft 502 kts 15°
2026-05-09 02:22 31.45568 -9.64795 35070 ft 513 kts 23°
2026-05-09 02:22 31.48571 -9.62611 35353 ft 514 kts 23°
2026-05-09 02:22 31.51633 -9.60399 35630 ft 514 kts 23°
2026-05-09 02:22 31.54691 -9.58194 35913 ft 514 kts 23°
2026-05-09 02:23 31.57718 -9.56011 36182 ft 514 kts 23°
2026-05-09 02:23 31.60783 -9.53798 36450 ft 515 kts 23°
2026-05-09 02:23 31.63816 -9.51606 36697 ft 515 kts 23°
2026-05-09 02:23 31.66889 -9.49384 36936 ft 516 kts 23°
2026-05-09 02:24 31.69950 -9.47167 37182 ft 516 kts 23°
2026-05-09 02:24 31.72987 -9.44967 37416 ft 516 kts 23°
2026-05-09 02:24 31.76056 -9.42741 37658 ft 517 kts 24°
2026-05-09 02:24 31.79120 -9.40517 37849 ft 518 kts 24°
2026-05-09 02:25 31.82156 -9.38313 37973 ft 519 kts 24°
2026-05-09 02:25 31.88300 -9.33843 37969 ft 517 kts 24°
2026-05-09 02:26 31.94394 -9.29404 37967 ft 518 kts 24°
2026-05-09 02:26 32.00541 -9.24919 37966 ft 518 kts 24°
2026-05-09 02:27 32.06631 -9.20468 37963 ft 518 kts 24°
2026-05-09 02:27 32.12773 -9.15973 37960 ft 518 kts 24°
2026-05-09 02:28 32.18868 -9.11505 37956 ft 518 kts 24°
2026-05-09 02:28 32.23966 -9.07761 37953 ft 518 kts 24°
2026-05-09 02:29 32.31125 -9.02495 37954 ft 518 kts 25°
2026-05-09 02:29 32.37236 -8.97993 37951 ft 518 kts 25°
2026-05-09 02:30 32.43336 -8.93492 37952 ft 519 kts 25°
2026-05-09 02:30 32.49482 -8.88949 37954 ft 519 kts 25°
2026-05-09 02:31 32.55583 -8.84432 37945 ft 519 kts 25°
2026-05-09 02:31 32.61722 -8.79879 37948 ft 519 kts 25°
2026-05-09 02:32 32.67821 -8.75349 37944 ft 519 kts 25°
2026-05-09 02:32 32.73961 -8.70781 37942 ft 519 kts 25°
2026-05-09 02:33 32.80081 -8.66220 37942 ft 519 kts 26°
2026-05-09 02:33 32.85191 -8.62406 37941 ft 519 kts 26°
2026-05-09 02:34 32.92332 -8.57067 37939 ft 520 kts 26°
2026-05-09 02:34 32.98441 -8.52493 37935 ft 520 kts 26°
2026-05-09 02:35 33.04541 -8.47917 37936 ft 520 kts 26°
2026-05-09 02:35 33.10639 -8.43334 37937 ft 520 kts 26°
2026-05-09 02:36 33.15764 -8.39477 37934 ft 520 kts 26°
2026-05-09 02:36 33.22849 -8.34008 37918 ft 519 kts 26°
2026-05-09 02:37 33.27981 -8.30220 37922 ft 519 kts 26°
2026-05-09 02:37 33.34091 -8.25665 37923 ft 520 kts 28°
2026-05-09 02:37 33.37074 -8.23311 38072 ft 517 kts 28°
2026-05-09 02:38 33.40104 -8.20946 38077 ft 520 kts 28°
2026-05-09 02:38 33.47273 -8.15537 37924 ft 519 kts 26°
2026-05-09 02:39 33.52352 -8.11827 37661 ft 494 kts 30°
2026-05-09 02:39 33.55271 -8.09692 37199 ft 487 kts 28°
2026-05-09 02:39 33.58150 -8.07582 36865 ft 477 kts 28°
2026-05-09 02:39 33.60895 -8.05488 37159 ft 456 kts 29°
2026-05-09 02:40 33.63513 -8.03469 37527 ft 451 kts 29°
2026-05-09 02:40 33.66154 -8.01438 37900 ft 448 kts 29°
2026-05-09 02:40 33.68795 -7.99417 37999 ft 452 kts 28°
2026-05-09 02:41 33.74138 -7.95343 38000 ft 461 kts 29°
2026-05-09 02:41 33.79589 -7.91181 37935 ft 462 kts 29°
2026-05-09 02:41 33.82306 -7.89103 37567 ft 459 kts 29°
2026-05-09 02:42 33.84973 -7.87061 36992 ft 458 kts 29°
2026-05-09 02:42 33.87671 -7.84995 36312 ft 458 kts 29°
2026-05-09 02:42 33.90367 -7.82930 35589 ft 459 kts 29°
2026-05-09 02:42 33.93073 -7.80856 34806 ft 460 kts 29°
2026-05-09 02:43 33.95764 -7.78792 34022 ft 461 kts 29°
2026-05-09 02:43 33.98480 -7.76707 33236 ft 463 kts 29°
2026-05-09 02:43 34.01205 -7.74614 32431 ft 464 kts 29°
2026-05-09 02:43 34.03911 -7.72533 31615 ft 466 kts 29°
2026-05-09 02:44 34.06650 -7.70426 30770 ft 467 kts 29°
2026-05-09 02:44 34.09403 -7.68306 29972 ft 467 kts 29°
2026-05-09 02:44 34.12101 -7.66224 29338 ft 463 kts 29°
2026-05-09 02:44 34.14804 -7.64136 28849 ft 457 kts 29°
2026-05-09 02:45 34.17450 -7.62090 28654 ft 446 kts 29°
2026-05-09 02:45 34.20077 -7.60060 27663 ft 450 kts 29°
2026-05-09 02:45 34.22687 -7.58047 26992 ft 448 kts 31°
2026-05-09 02:45 34.25288 -7.56043 26605 ft 437 kts 31°
2026-05-09 02:46 34.27841 -7.54050 26025 ft 436 kts 27°
2026-05-09 02:46 34.30403 -7.52056 25404 ft 438 kts 28°
2026-05-09 02:46 34.32987 -7.50051 24661 ft 442 kts 28°
2026-05-09 02:46 34.35533 -7.48071 24189 ft 434 kts 27°
2026-05-09 02:47 34.38072 -7.46098 24028 ft 435 kts 27°
2026-05-09 02:47 34.40630 -7.44114 23994 ft 435 kts 27°
2026-05-09 02:47 34.43142 -7.42162 23994 ft 434 kts 27°
2026-05-09 02:47 34.45686 -7.40184 23994 ft 434 kts 27°
2026-05-09 02:48 34.48236 -7.38200 23991 ft 434 kts 28°
2026-05-09 02:48 34.50764 -7.36227 24012 ft 439 kts 26°
2026-05-09 02:48 34.53356 -7.34213 23997 ft 439 kts 27°
2026-05-09 02:48 34.55891 -7.32238 23983 ft 430 kts 27°
2026-05-09 02:49 34.58399 -7.30276 23996 ft 431 kts 27°
2026-05-09 02:49 34.60941 -7.28295 23993 ft 434 kts 27°
2026-05-09 02:49 34.63485 -7.26308 23993 ft 433 kts 27°
2026-05-09 02:49 34.65994 -7.24347 23989 ft 433 kts 28°
2026-05-09 02:50 34.68558 -7.22338 23997 ft 440 kts 27°
2026-05-09 02:50 34.71143 -7.20316 23990 ft 440 kts 28°
2026-05-09 02:50 34.73677 -7.18337 24032 ft 445 kts 30°
2026-05-09 02:50 34.76349 -7.16254 23900 ft 460 kts 31°
2026-05-09 02:51 34.79033 -7.14150 23897 ft 457 kts 31°
2026-05-09 02:51 34.81716 -7.12039 23898 ft 458 kts 31°
2026-05-09 02:51 34.84358 -7.09960 23894 ft 458 kts 31°
2026-05-09 02:51 34.87056 -7.07835 23891 ft 458 kts 31°
2026-05-09 02:52 34.89739 -7.05720 23894 ft 459 kts 31°
2026-05-09 02:52 34.92407 -7.03616 23890 ft 459 kts 31°
2026-05-09 02:52 34.95108 -7.01485 23890 ft 460 kts 31°
2026-05-09 02:52 34.97765 -6.99387 23892 ft 460 kts 32°
2026-05-09 02:53 35.00471 -6.97248 23893 ft 460 kts 32°
2026-05-09 02:53 35.03138 -6.95138 23893 ft 461 kts 32°
2026-05-09 02:53 35.05837 -6.93002 23891 ft 461 kts 32°
2026-05-09 02:53 35.08516 -6.90879 23880 ft 461 kts 32°
2026-05-09 02:54 35.11208 -6.88745 23741 ft 461 kts 32°
2026-05-09 02:54 35.13908 -6.86603 23456 ft 461 kts 32°
2026-05-09 02:54 35.16601 -6.84464 22939 ft 459 kts 32°
2026-05-09 02:54 35.19236 -6.82369 22415 ft 453 kts 32°
2026-05-09 02:55 35.21867 -6.80275 21885 ft 447 kts 32°
2026-05-09 02:55 35.24485 -6.78190 21366 ft 446 kts 32°
2026-05-09 02:55 35.27050 -6.76146 20862 ft 444 kts 33°
2026-05-09 02:55 35.29639 -6.74081 20397 ft 439 kts 33°
2026-05-09 02:56 35.32189 -6.72021 19985 ft 437 kts 36°
2026-05-09 02:56 35.34466 -6.69560 19586 ft 435 kts 49°
2026-05-09 02:56 35.36258 -6.66654 19197 ft 429 kts 62°
2026-05-09 02:56 35.37753 -6.63498 18819 ft 426 kts 63°
2026-05-09 02:57 35.39243 -6.60362 18440 ft 425 kts 63°
2026-05-09 02:57 35.40720 -6.57263 18076 ft 422 kts 63°
2026-05-09 02:57 35.42204 -6.54152 17896 ft 419 kts 63°
2026-05-09 02:57 35.43761 -6.51150 17673 ft 424 kts 53°
2026-05-09 02:58 35.45862 -6.48590 17351 ft 425 kts 37°
2026-05-09 02:58 35.48380 -6.46723 17016 ft 418 kts 27°
2026-05-09 02:58 35.50930 -6.45074 16692 ft 409 kts 27°
2026-05-09 02:58 35.53396 -6.43476 16381 ft 400 kts 27°
2026-05-09 02:59 35.55838 -6.41887 16078 ft 391 kts 27°
2026-05-09 02:59 35.58222 -6.40333 15779 ft 383 kts 27°
2026-05-09 02:59 35.60532 -6.38825 15493 ft 375 kts 27°
2026-05-09 02:59 35.62821 -6.37328 15205 ft 367 kts 27°
2026-05-09 03:00 35.65043 -6.35875 14943 ft 360 kts 27°
2026-05-09 03:00 35.67237 -6.34439 14688 ft 354 kts 27°
2026-05-09 03:00 35.69415 -6.33013 14428 ft 355 kts 27°
2026-05-09 03:00 35.71567 -6.31513 14150 ft 353 kts 37°
2026-05-09 03:01 35.73235 -6.29382 13907 ft 347 kts 60°
2026-05-09 03:01 35.74149 -6.26690 13622 ft 336 kts 85°
2026-05-09 03:01 35.74286 -6.23862 13310 ft 327 kts 98°
2026-05-09 03:01 35.74158 -6.21078 13014 ft 324 kts 101°
2026-05-09 03:02 35.74007 -6.18347 12540 ft 324 kts 100°
2026-05-09 03:02 35.73886 -6.15536 11698 ft 336 kts 98°
2026-05-09 03:02 35.73808 -6.12638 11176 ft 334 kts 97°
2026-05-09 03:02 35.73766 -6.09812 10789 ft 324 kts 97°
2026-05-09 03:03 35.73663 -6.07108 10416 ft 312 kts 102°
2026-05-09 03:03 35.73468 -6.04423 10057 ft 316 kts 101°
2026-05-09 03:03 35.73278 -6.01754 9694 ft 315 kts 101°
2026-05-09 03:03 35.73090 -5.99072 9285 ft 308 kts 101°
2026-05-09 03:04 35.72910 -5.96477 8900 ft 299 kts 101°
2026-05-09 03:04 35.72737 -5.93991 8538 ft 290 kts 101°
2026-05-09 03:04 35.72565 -5.91554 8185 ft 281 kts 101°
2026-05-09 03:04 35.72421 -5.89553 7904 ft 277 kts 101°
2026-05-09 03:05 35.72384 -5.89037 7836 ft 278 kts 101°
2026-05-09 03:05 35.72246 -5.85888 7390 ft 279 kts 86°
2026-05-09 03:05 35.72899 -5.83629 7066 ft 285 kts 57°
2026-05-09 03:06 35.74288 -5.81934 6741 ft 285 kts 32°
2026-05-09 03:06 35.75822 -5.80394 6413 ft 284 kts 53°
2026-05-09 03:06 35.76671 -5.78255 6087 ft 276 kts 82°
2026-05-09 03:06 35.76890 -5.76719 5864 ft 272 kts 82°
2026-05-09 03:07 35.77477 -5.73754 5424 ft 263 kts 79°
2026-05-09 03:07 35.77904 -5.71583 5097 ft 255 kts 83°
2026-05-09 03:07 35.78068 -5.69445 4804 ft 247 kts 90°
2026-05-09 03:07 35.78158 -5.67377 4497 ft 241 kts 90°
2026-05-09 03:08 35.78238 -5.65322 4218 ft 240 kts 95°
2026-05-09 03:08 35.77811 -5.63415 3925 ft 226 kts 128°
2026-05-09 03:08 35.76727 -5.62128 3577 ft 213 kts 158°
2026-05-09 03:08 35.75332 -5.61676 3338 ft 206 kts 183°
2026-05-09 03:09 35.73971 -5.62038 3110 ft 198 kts 208°
2026-05-09 03:09 35.72932 -5.63070 3035 ft 190 kts 232°
2026-05-09 03:09 35.72356 -5.64547 3036 ft 191 kts 255°
2026-05-09 03:09 35.72112 -5.66059 3050 ft 172 kts 255°
2026-05-09 03:10 35.71857 -5.67516 3040 ft 179 kts 254°
2026-05-09 03:10 35.71587 -5.68996 3035 ft 176 kts 254°
2026-05-09 03:10 35.71335 -5.70413 3031 ft 162 kts 255°
2026-05-09 03:10 35.71262 -5.71788 3032 ft 161 kts 268°
2026-05-09 03:11 35.71415 -5.73176 3034 ft 167 kts 274°
2026-05-09 03:11 35.71612 -5.74568 2839 ft 163 kts 275°
2026-05-09 03:11 35.71771 -5.75917 2658 ft 154 kts 271°
2026-05-09 03:11 35.71866 -5.77239 2466 ft 154 kts 266°
2026-05-09 03:12 35.71848 -5.78534 2333 ft 153 kts 269°
2026-05-09 03:12 35.71952 -5.79853 2179 ft 151 kts 277°
2026-05-09 03:12 35.72141 -5.81047 1992 ft 138 kts 276°
2026-05-09 03:12 35.72304 -5.82221 1679 ft 138 kts 271°
2026-05-09 03:13 35.72469 -5.84575 1187 ft 143 kts 269°
2026-05-09 03:13 35.72568 -5.85821 958 ft 150 kts 272°
2026-05-09 03:13 35.72686 -5.87080 764 ft 146 kts 276°
2026-05-09 03:14 35.72813 -5.88316 515 ft 144 kts 273°
2026-05-09 03:14 35.72929 -5.89543 305 ft 145 kts 272°
2026-05-09 03:14 35.73001 -5.90360 147 ft 143 kts 274°
2026-05-09 03:14 35.73139 -5.91855 54 ft 117 kts 277°
2026-05-09 03:15 35.73189 -5.92587 47 ft 33 kts 248°
2026-05-09 03:15 35.73108 -5.92615 48 ft 17 kts 176°
2026-05-09 03:15 35.73022 -5.92524 49 ft 18 kts 98°
2026-05-09 03:15 35.73012 -5.92410 50 ft 23 kts 97°
2026-05-09 03:16 35.72991 -5.92202 52 ft 26 kts 96°
2026-05-09 03:16 35.72971 -5.91980 53 ft 26 kts 96°
2026-05-09 03:16 35.72957 -5.91830 53 ft 27 kts 96°